Location: Goudex
(43.3760°N, 0.9543°E)
Time: 12:39:37
(UTC+00:00)

ASTEX 1 - Pass Details

Date: 20 November 2019
Orbit: 721 x 742 km, 92.7° (Epoch: 06 December)

Event Time Altitude Azimuth Distance (km) Brightness Sun altitude
Rises 04:09:09 0° 166° (SSE) 3,150 6.8 -30.0°
Reaches altitude 10° 04:11:26 10° 165° (SSE) 2,235 6.0 -29.6°
Enters shadow 04:15:24 56° 142° (SE) 878 3.9 -28.8°
